RH
3 3 2 2 2 1 1 1 1 1 1 1 1 1 1 1 1 1 1 1 1 1 2 2 2 1 1 1 1 1 2 2 2 2 2 4 6 7 11 17 16 14 13 17 30 38 41 43 46 51 51 49 50 50 45 39 49 60 68 75 76 77 81 86 75 74 85 80 76 63 41 29 22 26 21 16 22 22 29 39 48 57 56 62 64 51 41 36
3 3 3 3 2 2 2 1 1 1 1 1 1 1 1 1 1 1 1 1 1 1 1 2 2 2 1 1 1 1 2 2 2 2 1 2 6 7 9 12 14 14 12 13 26 37 42 44 45 51 52 49 49 49 45 41 47 60 74 78 79 75 74 86 77 71 82 81 80 61 40 36 26 19 14 10 14 13 19 25 30 40 43 48 57 54 47 37
3 3 3 3 3 3 2 2 2 1 1 1 1 1 1 1 1 1 1 1 1 1 1 1 1 2 2 1 1 1 1 1 2 2 2 2 4 6 7 9 10 13 14 13 18 32 43 44 45 50 50 49 48 47 46 44 49 65 84 90 90 84 76 86 86 80 83 77 72 58 42 40 33 19 11 10 12 11 9 12 18 27 33 36 43 48 49 37
3 3 2 2 2 3 3 2 2 2 2 1 1 1 1 1 1 1 1 1 1 1 1 1 1 1 2 2 2 1 1 1 2 2 2 2 3 5 6 7 8 11 16 14 12 22 36 42 45 49 49 49 48 47 45 42 55 72 81 88 87 89 91 86 82 83 85 79 69 63 50 39 38 27 14 9 9 10 7 11 16 15 27 32 32 42 45 33
3 3 3 2 2 2 3 3 3 2 2 2 2 2 2 1 1 1 1 1 1 1 1 1 1 1 1 1 2 2 1 1 1 2 2 2 2 4 5 6 7 9 12 13 12 13 23 37 44 48 49 49 48 50 46 45 68 84 81 86 83 85 95 82 74 81 82 76 68 69 58 40 40 33 20 11 6 11 12 17 17 11 21 24 22 31 31 20
3 3 3 3 3 3 2 2 2 3 3 3 3 2 2 2 2 2 1 1 1 1 1 1 1 1 1 1 1 1 2 1 1 1 1 2 2 3 4 5 6 8 9 10 13 11 14 29 41 46 48 50 50 51 48 47 70 94 91 83 76 79 91 84 79 80 71 63 61 62 52 39 39 32 25 16 5 11 21 24 19 13 18 17 16 19 17 12
3 3 3 3 3 3 3 3 2 2 3 3 3 3 3 2 2 2 2 1 1 1 1 1 1 1 1 1 1 1 2 1 2 1 1 2 2 2 4 5 6 7 8 8 11 12 12 20 36 48 49 50 51 52 54 50 60 85 89 73 66 71 79 82 85 80 68 63 62 59 50 39 37 32 26 20 8 8 18 20 14 15 19 19 16 13 13 12
4 4 3 3 3 3 3 3 3 3 3 3 2 3 2 2 3 2 2 2 2 2 1 1 1 1 1 1 1 1 1 1 2 2 1 2 2 2 2 3 5 5 7 8 9 12 12 15 31 48 51 52 52 52 56 54 54 68 73 69 67 65 65 75 87 85 74 63 61 67 58 36 31 34 26 18 12 8 13 14 13 17 21 21 17 13 14 13
5 4 4 4 3 3 3 3 3 3 3 3 3 2 2 2 2 2 2 2 2 2 2 2 1 1 1 1 1 1 1 1 1 2 2 1 1 2 2 2 3 3 5 7 7 9 10 12 26 44 53 58 56 51 52 50 54 65 66 64 64 64 63 71 85 93 84 63 56 67 58 33 30 37 26 16 15 12 11 10 12 18 22 23 20 16 16 17
5 5 5 4 4 4 4 4 4 4 4 4 3 3 3 2 2 2 2 2 2 2 2 2 2 1 1 1 1 1 1 1 1 1 2 2 1 2 2 2 2 2 2 4 6 6 9 11 21 40 52 57 53 49 49 43 47 61 66 59 56 63 66 70 84 93 91 70 56 59 46 30 34 35 23 17 18 14 10 7 8 16 20 25 27 22 22 23
6 5 5 5 5 5 4 4 4 4 4 4 4 4 3 3 3 2 2 2 2 2 2 2 2 2 2 2 1 1 1 1 1 1 2 2 2 1 2 2 2 2 2 2 4 5 8 10 16 32 45 51 50 44 43 38 37 46 60 63 58 62 65 73 82 83 84 69 57 56 37 25 33 31 20 16 19 17 12 9 8 12 16 25 31 30 28 23
6 6 6 5 5 5 5 5 5 5 5 5 4 4 4 4 3 3 2 2 2 2 2 1 1 2 2 2 1 2 1 1 1 1 1 1 2 2 1 2 2 2 2 1 2 4 6 9 12 23 36 45 49 48 46 44 38 36 49 60 59 62 69 75 79 78 76 64 59 58 38 28 32 28 21 19 23 22 14 12 12 11 13 20 26 32 31 22
7 6 6 6 6 6 6 6 6 6 6 5 5 5 5 5 4 3 3 2 2 2 2 2 1 2 2 2 2 2 2 1 1 1 1 1 1 2 1 2 2 2 2 2 1 3 4 7 9 16 30 40 44 48 52 52 46 40 45 54 56 61 66 71 78 76 73 70 68 62 50 45 39 32 30 27 25 21 15 12 11 9 11 15 19 28 25 20
8 8 8 7 7 7 7 7 7 6 6 6 6 6 6 5 5 5 4 3 3 2 2 2 1 2 2 2 2 2 2 1 1 1 1 2 1 2 2 2 2 2 2 2 2 2 3 5 6 10 20 32 42 48 51 50 45 43 48 54 54 53 57 68 74 72 73 74 68 62 59 52 46 46 42 33 24 17 12 11 9 8 12 12 15 24 16 15
11 10 9 9 8 8 8 8 8 8 8 7 7 7 6 6 6 6 5 5 4 4 3 2 2 2 2 2 2 2 2 2 2 1 1 1 1 1 2 2 2 2 2 2 3 2 2 3 4 7 11 23 39 48 52 47 37 35 40 48 50 47 56 70 75 75 79 81 72 66 62 51 52 60 54 44 30 14 10 10 9 9 12 12 13 20 13 9
13 13 12 11 10 9 9 9 9 9 8 8 8 8 7 7 7 6 7 6 6 5 4 4 3 2 2 2 2 2 2 2 2 2 1 1 1 1 1 2 2 2 2 2 3 2 2 2 3 5 8 15 28 40 53 53 42 31 29 42 51 52 58 67 74 77 79 84 81 71 66 57 59 63 60 60 42 15 10 10 9 9 10 12 12 14 11 6
15 15 14 13 12 12 11 11 10 10 10 9 9 9 8 8 8 8 8 7 7 6 5 5 4 3 3 2 2 2 2 2 2 2 2 1 1 1 1 1 2 2 2 2 2 3 2 2 2 4 5 8 15 28 44 49 46 36 28 37 47 52 60 62 67 77 78 82 78 68 68 63 59 58 54 65 54 21 11 11 8 9 8 9 10 11 9 4
16 16 15 15 14 13 13 12 12 11 10 9 10 10 9 9 9 9 8 8 8 7 6 6 5 5 4 3 3 2 2 2 2 2 2 2 2 2 1 1 2 2 2 2 2 2 3 2 2 3 4 5 7 14 23 26 37 42 34 35 44 51 62 63 64 74 79 83 79 70 71 63 61 60 48 60 63 31 13 13 11 9 7 7 9 11 10 5
16 16 15 16 15 15 14 14 13 13 12 10 9 9 9 9 10 9 9 9 8 8 7 7 7 6 6 5 3 3 2 2 2 2 2 2 2 2 2 1 1 1 2 2 2 2 2 3 2 2 2 3 4 7 10 13 30 47 38 36 49 54 62 66 66 71 76 86 89 78 72 64 62 61 47 52 61 40 19 15 13 12 8 8 8 9 10 8
17 17 16 16 15 15 15 15 14 13 13 11 10 9 9 9 10 9 9 10 9 8 8 7 7 8 7 6 5 4 3 2 2 2 2 2 2 2 2 2 1 1 1 1 2 2 2 2 2 2 2 2 4 5 8 12 27 45 41 40 56 61 62 67 68 72 72 78 91 85 77 76 66 55 47 47 51 45 32 19 14 15 11 9 9 8 10 9
18 18 18 17 16 16 15 16 16 14 14 12 11 10 9 10 10 8 8 10 10 8 8 8 7 9 9 7 7 6 4 4 3 2 2 2 2 2 2 2 2 1 2 1 2 2 2 2 1 2 2 2 3 4 8 15 28 40 39 40 57 67 67 71 74 78 74 72 86 88 81 83 75 55 49 53 53 54 51 32 17 16 14 11 9 9 11 10
19 19 19 19 18 17 16 16 16 16 15 13 12 11 9 10 10 8 7 9 11 8 7 8 7 8 10 8 7 7 6 5 4 3 3 2 2 2 2 2 2 2 1 1 2 2 1 2 2 2 3 2 3 4 6 16 28 36 39 39 49 64 70 74 77 79 76 70 77 87 82 82 83 68 57 57 56 59 63 48 26 18 16 13 12 11 10 10
19 19 20 21 20 18 17 18 17 16 16 15 14 13 12 11 9 8 7 8 11 10 8 9 8 7 10 10 9 8 7 6 6 4 4 3 3 2 2 2 2 2 2 1 1 2 1 1 2 2 3 3 2 3 4 12 19 24 37 39 39 58 68 68 72 73 74 71 71 80 81 80 86 81 68 62 61 63 68 62 40 23 16 15 16 14 10 10
18 19 20 21 21 20 19 19 18 17 16 15 16 16 15 13 10 8 8 7 11 13 10 9 8 9 12 12 9 7 7 8 7 6 5 4 3 3 3 2 3 2 2 2 1 1 1 1 3 2 2 3 3 3 3 7 9 13 32 38 37 59 68 61 65 68 72 79 77 76 77 78 82 81 71 65 65 66 68 68 54 36 25 18 16 17 14 13
19 19 20 21 22 22 21 20 20 19 18 16 17 19 16 14 12 11 10 9 10 14 13 9 9 11 12 10 8 8 8 8 8 7 6 5 5 4 3 3 3 3 2 2 2 1 2 1 2 3 2 3 2 3 3 3 5 9 26 36 37 56 66 61 66 71 76 81 76 73 75 74 74 75 74 65 60 60 62 66 62 50 41 27 19 21 19 17
20 20 20 21 21 22 22 21 21 20 19 19 20 19 16 15 14 13 12 10 10 14 14 10 9 10 10 9 10 10 8 8 8 8 7 6 6 5 4 4 3 3 3 2 2 1 2 1 1 2 2 3 2 3 3 2 4 5 16 31 36 44 56 60 65 70 74 76 72 70 71 73 73 73 77 72 60 55 59 65 63 57 49 35 23 20 21 21
21 21 22 22 22 22 22 21 21 20 20 21 22 21 18 17 16 14 14 11 10 12 12 10 10 10 10 11 10 9 8 9 8 8 7 7 7 6 5 5 3 3 3 3 3 2 2 1 1 2 2 3 2 2 3 2 4 2 5 18 27 35 48 59 65 65 65 70 73 72 69 71 71 69 73 77 69 61 60 63 61 56 48 38 29 23 21 27
22 22 22 23 23 23 24 22 21 20 20 21 22 22 20 19 17 15 14 12 10 11 11 11 12 11 11 11 10 10 11 10 9 9 9 7 7 7 6 5 4 4 3 3 3 2 3 2 1 2 1 2 2 2 3 2 3 3 3 7 15 29 50 62 67 65 61 66 73 77 76 70 64 67 74 80 80 69 60 63 64 58 49 39 33 27 20 21
23 22 21 23 23 23 24 24 22 22 21 20 20 20 20 20 19 18 16 13 12 13 12 12 13 12 12 11 10 11 12 11 10 11 11 9 8 8 7 6 5 4 4 3 3 2 3 2 2 2 1 2 2 2 3 3 3 3 4 6 7 23 50 63 66 66 62 63 68 75 81 74 62 66 71 74 81 72 57 61 63 56 52 45 38 29 18 15
22 22 21 21 22 22 22 22 22 22 22 21 21 19 19 19 19 19 17 14 14 15 14 13 14 14 13 11 11 13 13 13 12 11 11 10 9 9 8 7 6 6 5 4 4 3 3 3 2 2 2 2 2 2 2 2 4 3 3 6 8 20 44 54 57 63 64 62 65 68 74 75 68 66 62 60 73 74 61 56 53 50 51 47 41 32 20 16
21 21 20 20 21 22 23 21 21 21 21 21 21 21 20 19 18 18 16 15 16 16 15 15 16 16 15 14 13 13 15 16 15 12 10 10 10 9 9 9 8 7 6 5 4 3 3 3 2 2 2 2 2 2 3 3 4 4 2 5 10 22 40 47 45 51 59 62 64 64 67 71 69 64 58 56 69 78 69 56 49 53 54 45 39 36 26 21
22 21 21 20 20 22 24 23 21 22 22 20 19 20 20 20 19 17 16 16 16 16 16 17 17 17 16 15 13 13 14 16 17 14 11 11 11 11 10 10 9 8 7 6 5 4 4 3 3 3 2 3 2 2 5 5 5 5 3 7 15 24 36 44 43 43 48 55 63 65 64 67 67 58 51 55 68 76 72 59 48 52 56 46 42 41 34 28
20 20 21 20 20 21 24 24 22 22 23 22 21 19 19 18 17 17 18 18 17 18 19 18 18 17 16 16 15 14 13 14 17 17 14 11 10 12 12 11 10 9 8 7 6 5 4 4 4 3 3 3 2 2 3 5 7 6 3 7 18 25 29 34 39 44 44 47 56 58 56 61 65 56 45 48 59 69 73 65 50 46 45 39 41 45 41 37
17 17 18 18 18 19 20 22 22 22 23 23 22 21 19 15 12 14 17 18 18 21 21 20 20 18 16 15 15 16 15 14 17 18 16 13 10 10 11 12 11 10 9 8 7 6 5 5 4 3 3 3 2 3 2 4 9 9 4 5 9 15 18 18 25 38 42 42 48 51 50 52 54 52 47 45 51 64 74 71 60 53 45 35 37 43 41 39
14 14 14 14 15 15 15 17 18 19 20 21 22 21 17 12 12 14 16 18 20 23 26 26 24 21 19 18 16 15 15 16 18 21 19 13 10 10 10 12 13 12 10 9 8 7 6 5 5 4 4 3 3 3 4 7 8 7 6 7 6 4 9 14 20 30 41 46 47 50 52 51 50 51 50 50 55 63 69 70 69 67 62 48 41 44 44 42
11 10 10 10 10 11 11 12 13 14 15 17 18 18 14 13 15 17 18 20 21 23 28 31 28 24 23 24 22 17 16 17 18 22 22 16 12 11 11 11 13 13 12 10 9 8 7 6 5 5 4 4 4 3 4 6 4 4 5 6 4 2 8 21 25 26 40 49 44 44 50 53 54 52 49 49 52 54 57 62 66 71 74 65 52 53 54 51
8 8 7 7 7 8 8 8 9 10 11 12 13 13 13 14 16 17 18 20 21 22 25 28 27 25 26 31 33 29 22 20 19 19 21 20 15 11 12 12 12 14 14 12 11 9 8 7 5 5 5 5 5 4 4 4 3 3 3 3 4 6 12 26 32 31 39 44 37 36 44 50 53 51 48 49 50 51 53 55 59 65 73 70 61 62 61 55
6 6 5 5 5 5 5 6 6 7 7 9 9 9 10 11 13 15 16 18 20 21 21 22 24 27 26 29 38 45 40 30 24 21 20 20 17 13 14 15 13 16 16 13 12 10 8 7 6 6 5 5 7 6 4 4 4 4 4 6 10 12 12 20 29 31 36 40 37 37 43 46 49 51 50 51 54 55 54 54 56 57 61 62 58 58 58 53
5 4 4 3 3 4 4 4 4 5 6 6 6 7 7 9 10 12 15 16 18 19 19 19 23 29 29 25 29 45 55 49 38 31 25 20 18 15 15 17 17 17 18 15 13 11 9 8 7 7 8 7 6 6 5 4 4 6 10 12 13 17 16 14 17 18 22 33 36 36 38 34 36 47 53 52 51 51 51 53 54 52 51 53 53 54 57 54
3 3 2 2 2 3 3 3 3 3 4 4 5 5 5 7 8 10 12 14 16 18 17 19 24 28 30 31 28 33 50 57 54 49 39 27 22 20 17 17 20 21 20 18 14 11 10 9 6 10 18 18 9 5 6 6 5 5 8 9 8 13 19 19 19 16 13 18 25 34 34 23 26 41 47 48 49 48 51 53 53 52 51 49 53 59 59 55
2 2 2 2 2 2 2 2 3 3 3 3 3 4 5 5 6 8 10 11 14 15 15 19 25 26 28 34 35 33 39 49 56 60 56 44 35 31 26 21 22 25 24 21 17 13 11 10 7 9 19 26 25 18 11 7 6 4 4 5 3 6 15 23 24 20 13 8 12 27 30 20 29 42 37 40 51 52 52 56 56 56 53 50 57 63 57 51
1 1 2 2 2 2 2 2 2 2 3 3 2 3 4 5 6 6 8 10 11 13 16 18 20 26 34 39 43 45 43 43 49 59 64 60 52 46 43 40 36 34 32 26 20 16 12 10 9 7 10 21 35 38 28 19 15 9 6 6 6 4 8 15 18 19 20 13 9 23 29 19 26 41 38 40 53 54 50 54 55 54 52 51 56 61 56 47
1 1 1 2 4 2 2 2 2 3 3 3 3 4 4 5 6 6 7 9 10 11 16 18 19 28 40 48 55 57 53 46 44 51 60 61 59 58 54 53 51 45 40 35 27 21 16 10 9 9 6 11 31 47 47 41 32 18 8 7 10 9 7 7 11 18 24 21 16 24 29 16 12 29 44 49 53 54 52 51 53 54 54 52 52 55 57 53
1 1 1 3 5 4 3 2 2 6 7 5 4 4 5 6 5 6 7 8 9 11 14 16 22 36 50 62 70 67 59 53 44 47 57 57 55 59 57 54 53 49 45 43 37 29 21 14 10 10 8 9 25 44 51 51 45 30 15 10 10 10 10 10 13 19 25 25 23 24 24 17 11 20 43 56 53 51 55 54 54 59 58 54 53 51 54 62
2 2 2 5 8 7 6 5 6 10 13 13 11 7 6 6 6 7 7 7 8 10 14 15 21 47 71 80 83 75 62 58 51 46 53 56 52 53 54 52 52 51 49 52 51 41 29 22 14 10 9 9 16 27 34 41 47 36 19 10 9 10 11 11 12 17 24 27 27 25 22 25 26 23 33 52 56 52 56 57 58 63 62 56 55 52 54 65
3 4 4 6 11 13 12 12 16 21 25 24 19 15 12 8 7 7 6 8 9 8 13 15 18 50 88 95 90 83 68 60 57 51 50 54 53 49 48 50 51 52 52 54 58 53 42 35 24 14 12 9 10 15 21 33 44 38 24 14 12 14 12 10 11 13 14 21 27 27 25 30 36 32 28 40 52 55 56 58 62 67 64 57 56 59 62 66
13 13 14 15 19 23 25 25 29 42 54 49 33 23 19 12 8 10 8 8 10 10 13 13 15 45 88 102 96 89 77 65 60 57 52 52 51 47 47 50 51 53 54 54 57 56 53 46 32 22 19 14 12 13 20 39 49 41 36 29 17 16 17 14 12 6 6 17 21 21 28 32 34 37 35 35 43 50 52 54 59 63 61 58 58 61 65 67
38 36 38 38 36 36 43 43 40 46 59 61 53 43 35 26 16 10 11 11 13 19 21 14 12 36 71 94 98 94 86 75 67 63 56 51 49 46 46 51 52 54 55 54 54 54 56 55 44 35 29 22 19 17 20 40 53 45 43 41 25 16 17 17 13 7 8 14 10 10 24 33 33 37 42 42 43 45 44 44 48 51 52 58 64 64 63 67
65 61 59 60 54 49 56 60 55 52 48 50 62 63 52 47 38 21 15 14 12 29 48 40 27 38 63 87 99 97 89 79 72 69 62 54 50 47 47 51 53 53 54 51 51 53 56 59 57 53 48 37 30 28 25 34 49 49 44 42 35 25 20 19 18 13 11 11 7 9 21 31 35 35 39 48 54 51 44 41 47 53 55 61 70 70 65 66
73 72 71 72 65 59 62 63 61 62 56 51 62 69 59 54 51 38 32 31 22 32 69 81 63 57 73 92 100 98 95 87 76 71 66 58 51 46 44 50 51 51 52 50 51 54 55 59 61 62 65 58 41 34 31 29 39 50 50 46 44 42 37 32 27 20 17 16 14 14 18 23 33 36 34 43 57 58 51 50 57 63 62 66 73 72 67 65
73 76 85 84 68 61 63 60 56 59 61 59 58 62 65 63 57 48 50 63 59 46 64 94 97 87 88 98 100 97 98 96 83 75 70 62 55 47 42 48 48 46 52 57 57 55 53 57 62 63 71 76 65 50 40 32 33 43 51 49 47 49 48 42 36 28 22 20 21 20 17 14 20 27 27 34 51 62 61 60 66 68 63 63 69 72 70 68
79 78 91 86 70 73 85 84 79 70 64 67 63 58 62 64 64 64 62 75 89 78 64 73 91 101 99 98 101 99 96 97 89 79 73 66 58 49 42 48 49 45 57 70 69 66 63 59 62 65 70 79 80 68 56 52 43 34 37 47 51 52 51 45 39 33 27 26 27 25 22 17 15 19 19 21 36 55 64 62 63 70 69 60 59 66 72 71
Wind_Speed
6 6 6 7 7 7 7 6 6 6 7 7 7 7 7 7 7 7 7 6 7 10 14 16 17 17 16 14 13 11 9 6 5 6 10 9 8 10 14 18 18 17 18 17 16 15 14 12 10 10 9 9 9 7 7 6 8 7 6 5 5 5 4 4 5 3 2 6 7 7 7 8 9 8 8 9 9 7 8 7 5 6 6 5 5 6 6 5
7 7 7 6 6 6 7 6 7 6 6 6 7 7 7 8 8 8 7 7 7 7 9 13 16 17 17 16 15 13 11 9 6 7 8 5 9 12 16 19 18 17 18 18 18 18 16 14 12 11 10 10 10 9 7 7 8 8 9 9 7 6 6 5 6 6 4 6 8 9 9 8 10 9 8 9 10 9 8 6 4 7 7 5 5 8 8 7
8 8 8 7 7 6 6 7 7 7 7 7 6 6 7 7 7 8 8 8 7 7 7 8 12 15 17 18 17 15 14 11 7 8 7 7 12 14 16 16 15 16 18 18 20 19 18 16 13 12 11 11 10 10 9 8 8 8 8 10 13 12 8 3 4 9 5 5 8 9 9 8 10 11 9 9 9 10 9 6 4 7 7 6 6 8 9 8
8 8 8 8 8 8 7 7 7 7 7 7 7 7 7 7 7 8 8 8 8 7 7 7 8 10 14 17 18 17 15 13 10 10 8 9 13 15 15 15 13 15 18 19 20 20 20 18 15 14 13 11 10 9 9 9 7 7 5 9 15 14 11 3 2 9 6 5 8 8 9 8 9 12 10 9 8 9 8 5 5 7 7 6 6 7 9 8
8 8 8 8 8 8 8 8 8 8 7 7 7 7 7 7 7 7 8 8 8 8 8 8 8 8 10 13 17 18 16 14 12 12 12 11 13 15 16 14 13 15 17 19 19 20 21 20 18 16 14 12 10 9 9 6 8 5 7 11 18 15 11 7 4 10 11 8 8 7 9 8 9 12 12 10 9 7 6 5 6 7 6 7 6 6 7 7
9 9 8 8 8 8 8 9 9 9 9 9 8 8 8 8 8 8 8 8 8 8 8 9 9 8 8 9 12 16 17 16 15 15 15 13 12 15 17 16 15 16 17 17 19 21 21 21 19 17 15 13 11 10 9 3 10 0 10 11 18 16 12 9 6 10 12 9 8 8 10 9 9 12 12 12 11 5 4 5 7 7 6 8 8 6 6 7
10 10 9 9 9 8 8 9 9 10 10 10 10 10 10 9 9 9 9 9 9 9 9 9 9 9 9 8 8 10 14 16 16 16 16 14 13 15 17 17 16 16 16 16 18 20 21 22 20 19 18 15 13 11 9 4 5 11 7 8 16 16 11 9 8 12 14 8 7 10 12 10 8 11 11 12 13 8 5 5 6 7 6 7 8 7 6 6
12 12 11 10 10 9 9 9 10 10 10 11 11 11 11 11 11 10 10 10 9 9 9 9 9 9 9 9 8 7 9 12 15 17 18 17 15 16 17 18 18 16 16 16 17 20 22 22 21 22 20 17 15 13 12 5 5 11 9 4 15 18 16 10 8 12 14 9 9 14 14 10 7 10 12 12 12 9 7 6 6 7 6 6 7 7 6 6
14 14 13 12 12 11 11 11 11 11 11 11 12 12 12 12 12 12 11 11 10 10 10 10 9 9 9 8 8 8 7 8 12 19 21 20 17 17 18 18 18 17 17 17 17 19 20 21 22 23 20 19 18 15 14 8 9 8 7 5 7 19 21 13 7 11 16 14 13 16 15 10 7 9 12 11 9 7 8 8 6 6 5 5 6 7 7 6
15 15 15 14 14 14 13 13 13 12 12 12 12 13 13 13 13 13 13 12 11 11 11 11 10 10 9 8 8 7 7 7 10 15 21 23 20 18 18 18 18 18 19 17 17 17 17 20 22 24 24 24 23 19 15 12 12 16 16 12 2 16 20 11 4 10 21 21 15 15 14 8 6 10 11 10 8 6 7 8 6 6 5 5 6 7 7 7
17 17 16 16 16 15 15 15 15 14 14 14 14 14 13 13 13 13 13 13 13 12 12 12 11 11 10 10 9 7 7 6 8 13 17 22 23 21 19 19 19 19 19 18 18 16 17 21 23 26 27 25 25 21 16 14 14 23 25 21 13 15 16 12 5 12 21 19 10 11 12 7 7 12 11 10 8 5 7 8 6 6 4 4 5 6 7 8
18 18 18 17 17 17 16 16 16 16 16 15 15 15 15 15 14 14 14 14 14 13 13 13 12 12 11 12 10 7 8 6 7 12 14 18 22 23 22 21 21 19 19 19 19 18 19 22 25 28 27 25 25 22 16 12 11 15 22 26 22 16 13 15 10 9 18 17 10 11 10 6 8 12 11 9 8 5 6 8 5 6 4 4 5 6 6 7
19 19 19 18 18 18 18 17 17 17 17 17 16 16 16 15 15 15 15 14 14 14 14 14 13 12 12 14 10 9 10 7 6 10 11 13 17 21 23 23 23 21 20 20 20 20 20 22 26 27 27 27 26 23 19 14 11 13 20 26 23 16 14 15 11 11 20 21 16 15 11 8 8 11 9 8 10 6 6 8 6 6 4 4 5 4 5 5
19 19 19 19 19 19 19 19 19 18 18 18 18 18 17 16 16 16 16 16 15 15 15 14 15 13 14 16 12 10 12 9 7 8 10 12 13 17 21 24 25 24 22 21 21 21 21 23 25 27 28 27 25 24 24 23 20 20 23 25 22 18 17 15 14 16 23 23 18 15 13 11 9 11 9 8 12 7 5 8 6 5 4 4 5 4 4 4
19 19 20 20 20 20 20 20 20 20 20 20 19 20 20 18 18 17 16 17 16 16 15 14 15 13 14 17 15 12 12 11 9 8 9 11 11 14 18 24 26 26 25 23 22 22 23 24 25 27 27 26 26 27 27 26 24 21 22 24 20 17 18 18 16 15 18 21 19 16 16 12 9 13 10 9 13 8 5 7 7 6 5 4 6 6 5 3
19 20 20 20 20 20 20 21 21 21 21 21 21 21 21 20 20 19 18 18 18 17 17 16 15 14 15 17 17 14 12 12 12 10 9 10 11 13 15 20 25 28 27 26 25 24 24 25 25 26 26 28 28 28 28 29 28 22 18 21 19 13 12 13 14 14 17 21 23 19 14 11 10 13 11 8 12 11 6 6 7 7 5 5 6 7 6 4
20 20 21 21 21 21 21 22 22 22 23 23 22 23 23 21 20 20 20 20 19 18 18 18 16 15 16 16 16 17 14 13 15 12 10 10 11 12 13 16 22 27 28 28 28 26 25 25 25 26 26 28 28 27 31 32 30 24 17 18 18 14 10 9 12 15 18 22 24 20 12 12 11 12 11 8 11 12 8 6 7 7 6 6 6 8 7 6
22 22 22 22 22 22 22 22 23 22 23 24 23 24 24 22 21 22 21 20 19 20 20 20 16 15 17 15 15 18 15 14 17 15 12 11 11 12 12 14 18 23 28 30 30 28 27 26 26 27 27 27 27 29 31 29 26 23 19 16 14 16 16 14 17 20 21 20 22 19 14 14 12 13 15 11 11 12 11 8 7 7 7 6 6 8 8 8
24 24 24 24 24 24 23 23 23 23 24 25 24 25 26 24 23 23 21 20 20 21 22 21 17 15 17 17 16 18 15 15 19 18 15 14 13 12 12 14 16 20 25 29 31 30 29 29 29 27 25 24 25 27 27 23 22 24 22 15 12 16 20 18 20 24 24 22 22 19 15 17 16 15 18 14 12 13 12 11 8 6 6 6 7 8 9 9
26 26 27 27 27 26 25 24 24 24 24 25 25 25 26 24 25 24 21 20 22 21 22 21 18 17 18 19 18 16 16 18 20 20 18 17 15 14 13 14 15 17 20 25 30 31 32 33 31 25 21 21 22 22 21 20 22 25 25 16 13 13 16 17 21 23 23 20 22 21 14 16 18 15 19 16 12 13 13 12 9 7 6 6 7 8 10 10
28 28 28 29 29 29 28 26 26 26 25 25 25 26 26 24 25 26 21 21 22 22 21 21 20 17 18 23 20 17 19 19 19 20 20 19 18 16 14 14 15 16 17 21 27 31 34 35 31 24 21 22 22 22 19 19 22 26 26 20 19 15 11 14 19 20 22 19 20 24 18 16 18 15 17 17 13 12 13 13 11 8 6 6 7 8 10 11
31 30 31 31 32 32 31 30 29 29 28 27 27 26 25 24 26 26 23 21 21 22 20 20 21 16 18 25 23 21 22 19 19 21 21 21 21 19 17 16 15 14 16 20 24 28 31 31 29 25 24 24 24 25 23 23 25 28 28 24 25 22 14 13 19 22 24 23 17 20 20 17 17 17 18 19 17 14 14 14 12 11 8 7 7 8 10 10
34 33 33 33 34 35 34 33 32 32 31 30 30 29 27 26 26 26 24 21 20 22 21 20 22 18 17 22 24 24 22 19 20 21 22 22 21 21 21 18 16 16 18 19 21 23 25 26 28 28 27 27 26 26 27 27 29 28 29 28 26 25 20 16 19 25 26 25 19 18 23 22 19 19 19 21 20 17 15 14 13 13 10 8 9 9 9 10
37 36 35 35 36 37 37 36 35 35 33 33 32 32 32 31 29 27 26 23 20 22 25 25 23 18 15 20 25 23 18 20 22 21 23 24 22 23 23 20 20 20 18 18 19 20 20 22 27 29 29 29 28 28 29 30 30 28 29 31 26 27 25 20 18 25 27 26 26 25 27 25 21 21 21 21 21 19 16 14 14 14 12 10 10 9 9 10
41 39 38 37 37 38 39 39 38 38 36 35 34 35 36 36 35 33 32 32 26 22 28 30 24 18 20 25 25 22 20 22 21 21 25 25 23 24 24 24 23 21 18 18 20 20 19 20 26 30 31 31 31 30 30 29 29 28 30 30 27 28 29 26 21 22 25 26 27 26 26 26 22 21 22 22 21 19 17 17 16 14 14 12 11 10 10 10
44 43 41 40 39 39 41 41 40 40 39 38 37 38 38 38 38 37 36 38 31 24 28 31 27 22 22 24 23 24 24 18 17 24 27 25 23 24 26 26 24 21 19 20 21 21 20 20 24 29 32 33 34 33 30 29 29 30 30 30 28 27 29 29 24 19 24 25 26 26 25 26 25 22 22 23 22 19 19 20 17 15 16 15 12 12 11 11
45 45 44 43 43 41 42 43 43 42 42 40 39 40 40 39 39 38 37 39 34 28 29 29 27 24 22 24 26 26 22 16 19 26 25 24 23 24 27 27 24 21 21 23 25 22 19 21 23 26 30 33 36 36 31 30 31 29 27 30 30 29 30 29 26 23 25 27 30 31 27 26 28 26 25 24 23 22 21 21 18 17 18 16 15 14 13 12
46 46 46 45 45 44 43 45 46 45 43 42 41 42 42 41 41 39 39 40 35 31 29 27 28 27 26 28 28 26 25 24 26 24 22 26 26 26 28 27 25 22 23 27 27 21 18 21 22 24 28 31 34 36 32 31 33 27 24 29 30 30 31 29 27 27 24 26 31 33 32 31 29 25 24 24 24 24 22 21 21 20 20 18 16 16 14 13
47 48 48 46 46 46 44 45 47 48 47 45 44 44 43 43 42 41 42 42 36 32 32 31 31 30 29 31 30 29 30 30 30 27 27 30 29 27 27 27 27 26 27 30 27 23 22 21 22 24 26 27 30 34 33 34 34 27 25 29 30 31 32 28 27 29 27 29 32 33 37 38 31 25 26 27 27 28 24 22 22 22 21 19 18 17 16 14
49 50 50 48 48 48 47 46 46 48 49 48 48 47 45 45 44 44 45 44 38 36 37 36 35 33 32 32 31 30 30 30 30 32 32 32 30 30 29 28 31 31 29 30 29 25 23 22 24 26 25 25 27 31 33 35 34 29 28 30 30 32 31 26 28 29 31 34 34 34 39 40 37 33 32 31 29 29 26 24 23 22 20 19 18 18 17 16
51 51 52 51 51 50 50 50 48 48 49 50 50 50 49 48 47 48 48 43 40 40 40 38 38 39 38 37 35 33 32 31 32 34 35 33 32 32 31 31 33 34 31 31 30 26 24 26 26 26 26 26 27 30 32 33 34 32 31 31 32 33 33 31 31 32 36 38 36 35 36 38 40 39 35 32 29 27 26 26 24 22 21 21 20 19 20 19
52 52 53 53 52 51 52 53 51 51 51 51 52 52 52 51 52 52 48 43 44 44 43 41 41 42 43 41 40 37 36 35 35 37 38 36 34 33 33 32 32 33 33 30 27 26 26 26 25 26 27 27 29 31 34 34 33 34 35 33 34 35 37 39 39 38 40 40 36 32 31 34 38 37 32 28 27 27 26 26 25 24 24 23 21 20 22 21
54 54 54 55 54 54 53 53 54 53 52 52 53 53 53 54 54 51 47 46 47 46 45 45 45 46 47 46 43 40 39 37 36 38 39 38 38 37 34 33 33 35 34 30 28 29 29 27 27 29 29 28 31 32 34 36 32 34 38 38 38 38 41 44 44 43 43 39 35 31 31 35 37 37 32 26 22 23 26 26 26 26 26 24 21 21 22 21
55 55 55 55 56 56 55 54 55 55 55 54 54 54 55 55 54 49 48 50 49 46 46 47 47 48 50 49 46 43 41 40 39 39 41 41 40 39 38 35 35 37 36 34 34 34 33 31 29 29 28 28 30 30 32 34 33 34 37 40 41 41 42 44 44 44 42 37 34 32 35 39 37 37 35 30 23 21 26 29 26 25 26 24 22 21 22 22
57 56 55 56 56 58 57 56 56 56 56 56 56 57 57 54 52 49 50 51 49 47 45 46 48 49 50 50 49 46 43 42 41 39 42 45 42 40 40 37 35 37 38 37 37 35 34 33 28 26 27 28 30 29 28 32 36 37 37 40 42 42 41 41 42 41 37 35 35 36 38 36 33 33 32 31 28 23 25 29 27 26 25 23 23 22 22 21
61 60 59 58 58 59 59 59 58 58 58 58 59 60 57 54 52 52 51 51 51 50 47 47 49 50 50 50 51 50 47 44 43 42 42 45 46 42 42 41 37 36 39 38 36 35 35 33 28 27 29 30 32 29 27 31 36 37 38 38 38 40 40 40 41 39 37 37 38 37 38 35 32 31 27 26 30 27 24 25 26 27 27 24 22 20 20 20
66 64 63 62 62 61 61 61 61 61 61 62 62 60 57 55 55 54 54 53 53 53 52 51 52 52 51 49 48 50 50 47 46 45 44 45 47 45 43 44 41 38 39 39 35 34 34 33 30 30 31 31 32 31 29 31 33 35 36 33 33 39 43 42 41 41 42 43 41 36 35 34 31 29 24 21 25 25 23 23 24 26 28 27 23 20 20 20
70 69 66 64 65 65 64 64 63 63 64 65 64 61 59 59 58 57 56 56 54 55 55 54 54 54 54 52 49 44 45 49 49 47 47 47 47 47 45 44 44 41 38 38 37 34 34 35 33 32 33 31 30 33 35 34 33 34 34 33 33 39 44 46 46 44 44 45 42 35 34 35 31 27 25 22 23 25 26 25 25 26 27 27 25 23 21 21
75 73 67 65 67 68 68 67 66 66 66 67 65 63 62 61 61 59 58 57 56 57 57 55 56 56 56 56 55 46 39 42 48 47 47 49 48 47 47 45 44 42 38 37 38 36 35 37 35 33 32 32 33 38 40 38 34 32 34 36 36 35 38 43 47 48 46 45 43 39 40 39 33 28 26 25 26 27 26 25 27 29 30 29 27 24 21 20
78 75 69 68 68 68 68 68 68 68 69 68 65 63 63 62 63 63 62 60 60 59 59 58 58 59 57 57 59 56 46 37 39 45 46 48 49 47 48 47 45 42 40 37 37 37 37 39 37 33 30 32 38 42 41 37 35 33 34 39 40 37 35 37 43 47 47 47 46 43 45 43 35 30 28 27 28 26 23 24 28 30 31 30 28 25 22 21
79 75 70 68 68 67 68 69 69 70 70 69 66 65 64 63 64 65 65 65 64 63 62 62 62 60 60 59 60 61 57 46 38 40 43 44 46 46 46 47 46 43 41 40 40 40 40 41 40 36 34 34 37 39 37 35 34 34 34 34 39 42 39 37 41 44 45 48 48 45 46 45 37 29 24 23 24 25 23 23 25 27 28 27 25 24 23 24
79 75 69 66 66 67 69 69 70 71 71 70 67 66 65 64 66 66 68 69 68 66 66 66 66 63 62 62 60 60 61 57 48 40 39 41 43 43 41 40 41 41 41 41 42 40 39 41 42 40 39 38 33 31 35 35 32 33 34 31 34 43 46 43 42 42 42 45 45 45 47 47 40 28 20 21 24 25 26 26 26 29 30 28 26 26 23 23
78 75 67 62 63 67 69 70 70 70 71 70 67 66 66 66 68 69 70 71 70 70 69 68 68 67 66 64 61 59 60 63 59 50 41 39 40 39 37 35 34 36 38 39 40 40 39 41 44 43 41 39 32 26 30 35 33 34 37 33 32 41 48 46 41 38 40 43 43 45 49 51 46 32 21 22 27 27 27 29 30 31 33 31 29 30 28 24
74 72 65 59 59 62 66 68 67 66 67 67 66 66 67 68 70 71 72 73 72 72 73 72 70 69 67 64 62 61 60 63 65 59 50 42 39 38 37 37 34 32 36 37 37 42 43 43 45 45 44 42 39 34 32 34 36 36 38 35 32 37 44 46 40 34 36 39 40 43 48 49 46 36 28 24 27 31 31 30 28 29 33 33 30 30 31 29
68 66 60 56 55 57 61 63 63 63 63 63 65 66 66 69 71 71 73 74 74 74 74 74 73 70 68 65 64 63 63 64 66 64 58 50 46 42 38 36 34 32 35 35 32 38 43 43 45 48 50 48 47 46 43 38 37 38 40 38 34 34 41 47 45 39 37 35 32 38 44 45 42 36 34 31 28 30 31 28 26 29 34 32 25 24 27 30
60 58 54 50 49 51 54 56 57 58 59 61 64 65 66 68 71 73 75 76 75 74 74 76 75 72 67 66 67 66 65 65 65 66 63 56 51 47 41 38 37 35 37 36 32 34 40 45 47 50 51 50 47 47 43 36 35 40 42 40 36 31 33 45 52 49 45 38 31 32 36 39 39 34 31 35 33 30 31 30 27 29 30 26 21 21 25 29
48 47 44 43 42 43 45 48 51 53 53 57 63 66 66 68 70 72 74 74 72 71 74 79 79 74 68 68 70 69 68 67 64 65 66 62 57 49 45 49 46 39 40 41 37 36 41 46 50 51 49 48 46 45 40 34 33 40 43 41 39 33 29 39 49 49 48 45 40 36 32 29 31 28 24 29 34 33 33 34 31 30 30 26 22 23 26 29
34 33 32 33 33 34 37 40 44 48 49 51 54 57 58 61 64 67 67 67 66 65 71 78 79 77 74 72 72 72 72 72 69 68 70 68 64 56 48 49 49 40 42 47 44 42 44 46 49 50 48 47 46 44 42 38 33 39 46 44 42 39 34 35 39 41 48 53 50 45 36 28 30 31 26 25 30 32 32 33 34 33 33 30 26 26 28 31
25 23 22 24 25 26 28 31 36 41 44 45 46 46 47 50 54 59 63 63 59 57 62 68 72 74 75 73 73 75 76 77 75 73 74 73 69 63 54 49 46 43 44 49 49 48 49 47 46 45 46 46 47 46 46 44 36 33 38 39 37 38 38 36 34 35 41 50 52 50 44 35 32 35 34 29 27 30 34 36 34 31 30 30 30 30 29 29
20 19 18 19 20 21 24 27 30 33 36 39 42 42 42 43 45 48 53 55 54 53 56 60 63 66 69 71 74 77 79 80 79 76 75 76 74 68 60 54 51 50 49 49 49 51 49 49 48 45 42 42 45 48 49 49 44 35 32 33 31 32 34 34 32 32 35 40 43 47 49 46 39 37 36 34 29 29 35 38 35 32 30 30 31 33 33 32
17 17 17 19 20 21 23 25 26 29 31 33 38 41 41 41 42 43 45 48 50 51 56 60 59 58 62 68 74 77 78 81 83 81 77 77 76 72 64 59 58 56 53 50 50 53 53 52 53 50 42 34 36 42 47 50 49 45 40 37 31 28 30 32 30 28 31 34 34 37 45 50 48 44 42 38 35 33 32 32 34 36 37 37 36 35 37 39
16 16 18 20 19 19 22 23 22 24 27 28 32 37 39 39 40 42 44 45 45 47 54 61 60 56 58 64 71 76 76 78 82 84 81 77 76 74 68 64 63 59 52 49 48 52 56 55 56 56 49 40 36 36 38 40 48 54 50 43 36 29 28 31 31 27 25 27 30 33 38 40 41 44 48 47 44 42 37 33 35 38 39 42 43 41 41 42
Wind_Direction
332 340 348 352 355 354 350 342 330 321 313 309 306 304 302 300 301 301 303 296 279 260 251 247 242 238 237 241 240 237 235 229 218 208 222 220 196 202 212 218 223 217 217 219 213 208 206 202 193 186 176 166 164 167 178 150 143 146 98 98 100 44 23 28 353 346 9 341 328 325 327 316 313 308 304 304 297 293 281 270 272 271 256 247 256 256 252 226
322 324 328 333 341 346 348 348 344 340 331 323 314 308 303 300 298 296 297 296 295 286 267 255 249 243 238 238 239 240 237 231 219 219 230 199 180 199 208 218 222 218 220 218 213 212 209 206 198 190 187 175 169 174 172 154 151 134 85 56 43 26 23 39 355 349 357 323 312 320 327 318 308 305 305 300 296 293 281 286 290 267 266 269 265 267 270 249
324 319 315 316 321 325 332 336 339 342 341 339 333 325 315 306 302 298 296 293 292 291 287 274 260 251 243 239 237 238 239 234 223 231 235 187 187 205 214 222 224 220 222 219 217 215 213 213 203 197 197 183 178 176 171 169 142 116 96 49 22 5 357 46 11 346 340 308 305 312 320 314 305 306 307 297 293 293 295 311 292 268 280 287 276 275 277 262
326 322 317 315 313 313 315 319 325 330 333 337 338 337 331 324 315 306 301 297 295 289 287 284 277 265 252 244 239 237 236 234 229 232 231 201 192 204 221 227 224 220 220 222 221 218 218 218 209 205 203 194 189 178 190 193 121 83 87 34 1 352 346 330 42 351 321 311 321 315 317 316 307 308 308 297 289 291 308 330 295 287 292 288 285 279 280 267
317 317 317 317 315 312 309 308 310 313 316 321 325 328 330 330 326 322 314 306 301 295 288 283 282 278 266 253 245 240 237 234 231 230 228 217 199 201 219 228 223 220 221 222 221 222 222 220 215 210 208 205 194 184 208 195 101 25 340 358 336 331 340 323 23 357 316 305 321 312 321 331 315 309 312 304 289 288 318 341 306 300 298 291 293 280 276 264
309 308 309 312 313 312 310 307 306 305 305 306 308 312 314 319 320 321 320 317 310 303 296 290 284 280 278 268 255 247 241 235 228 230 229 224 212 203 212 222 222 221 224 225 221 223 224 222 219 213 213 210 202 199 211 162 102 172 290 321 330 328 331 320 337 343 319 308 312 309 321 329 316 310 315 307 300 314 342 338 310 302 307 301 297 286 273 260
306 304 304 305 306 308 308 308 309 307 304 302 302 302 303 305 308 310 312 314 314 311 306 299 294 287 282 276 268 256 246 239 228 230 235 229 221 210 209 217 222 222 225 227 223 222 224 225 221 215 216 213 209 206 217 255 130 150 203 296 331 332 327 312 298 319 321 314 324 326 319 316 312 308 307 300 306 332 341 319 308 303 314 310 301 291 273 261
301 301 300 299 299 301 302 304 306 307 306 304 302 300 300 300 300 302 303 306 308 310 309 306 304 298 291 284 278 266 252 246 232 228 234 231 222 216 212 215 223 224 223 224 223 221 221 223 221 218 218 217 214 209 213 218 133 139 145 326 325 316 317 309 275 307 309 288 321 324 308 309 315 298 295 298 308 334 330 310 303 301 309 308 300 289 273 261
296 296 295 295 294 294 295 297 299 301 303 302 302 301 300 298 297 297 297 300 302 303 305 307 308 304 300 294 284 273 257 244 233 226 230 232 225 219 217 219 223 225 225 224 223 221 219 219 220 220 218 217 216 221 222 177 115 112 124 100 333 302 305 313 281 298 295 280 307 308 291 307 311 285 293 303 318 339 321 308 298 293 300 303 298 289 279 267
295 293 293 292 291 291 291 291 292 294 296 297 299 298 298 298 297 295 294 295 296 298 300 302 306 306 306 300 291 284 261 242 238 232 228 231 229 222 221 224 223 225 228 227 226 221 218 217 217 220 218 217 218 221 225 201 151 135 151 161 230 282 286 317 300 267 281 282 296 290 278 298 286 275 292 302 318 336 308 302 296 287 291 292 291 288 284 276
294 293 292 292 291 290 290 290 291 290 291 292 293 294 295 296 295 295 294 293 292 291 294 297 300 303 306 300 296 295 274 249 238 238 232 229 230 226 222 227 225 225 228 228 228 220 215 214 215 219 219 219 223 226 228 226 186 153 164 186 205 243 262 310 297 231 263 275 289 281 272 286 269 273 291 294 308 326 299 296 291 282 279 276 278 281 285 283
291 291 290 291 290 290 289 289 290 290 290 289 289 290 290 292 292 293 293 292 292 290 289 291 292 297 300 296 299 297 285 274 240 241 241 233 232 229 223 227 228 226 227 229 228 222 215 212 215 218 219 220 222 226 229 238 225 184 180 186 189 207 242 289 288 247 269 275 281 279 275 281 262 274 291 291 298 312 297 293 284 275 266 264 270 268 279 285
287 287 287 287 287 287 287 287 287 287 288 287 287 286 286 287 287 288 289 290 290 290 289 288 288 292 291 290 298 295 289 293 262 249 247 240 236 232 225 225 230 229 226 227 228 225 219 215 217 217 218 221 220 221 217 210 209 193 187 183 182 197 222 247 243 234 261 267 269 271 274 276 260 270 286 288 292 299 292 290 280 270 263 263 262 254 265 271
286 286 285 285 285 286 286 285 285 285 284 284 284 284 283 283 284 284 284 285 286 287 287 287 287 287 285 286 290 289 290 294 281 265 256 248 240 235 229 225 228 231 229 227 228 228 224 220 220 218 217 220 220 220 216 209 198 178 180 183 182 195 204 220 236 233 244 258 266 267 268 269 264 267 270 282 288 290 286 285 282 267 257 257 251 236 244 247
286 286 286 286 286 286 286 286 285 285 284 283 282 282 282 282 282 282 283 283 283 282 281 281 283 284 280 282 286 285 288 291 283 274 264 255 246 240 232 226 227 230 232 229 227 228 228 225 223 222 219 217 219 219 219 222 218 200 191 187 187 200 194 199 225 227 231 251 265 269 269 263 263 269 267 277 282 284 282 276 282 273 249 238 237 226 223 224
287 286 286 286 286 286 286 286 286 286 285 284 283 281 281 281 281 281 281 281 280 280 280 278 279 279 274 278 286 286 284 283 281 276 266 261 253 246 237 230 227 228 232 231 230 228 227 228 227 225 221 217 218 218 219 226 231 229 215 194 191 197 185 191 219 223 220 238 252 259 266 256 251 266 268 271 276 281 284 268 273 271 253 236 229 225 215 201
290 288 287 286 285 284 283 283 284 285 285 285 284 282 280 279 280 279 277 277 279 279 279 276 273 273 272 275 284 284 280 277 279 278 268 263 258 252 246 236 230 229 230 232 232 230 229 229 228 228 224 222 221 218 218 223 228 236 229 205 196 192 204 248 264 250 230 232 244 246 255 259 251 261 267 268 271 274 277 267 265 265 259 246 229 225 219 202
290 289 288 286 285 284 282 280 280 281 282 283 282 282 281 279 279 277 276 278 279 277 274 273 272 273 274 275 274 275 278 276 276 277 271 267 262 257 251 242 235 231 230 232 233 232 231 231 230 229 226 224 224 222 223 224 224 232 233 214 196 186 201 242 263 261 252 248 250 247 250 257 252 261 270 267 261 265 269 263 260 261 258 253 237 225 223 215
289 288 287 285 284 283 281 279 279 278 278 280 280 279 279 279 278 275 276 278 275 273 273 273 275 274 272 269 263 266 273 271 272 276 274 270 265 259 255 247 242 236 232 232 233 234 234 232 232 231 228 227 228 229 231 231 223 227 235 218 189 181 180 206 238 251 259 258 257 257 255 251 246 256 267 263 251 256 261 259 258 257 253 253 245 227 222 222
285 285 285 284 283 282 280 278 277 276 275 276 277 276 276 277 276 273 272 273 271 272 274 276 276 272 270 268 264 265 265 262 267 273 272 270 268 263 259 254 249 244 239 235 234 234 235 235 234 232 233 233 235 236 234 232 222 224 232 211 186 196 181 200 233 249 258 255 254 263 264 251 247 251 262 260 247 249 255 257 258 255 250 249 244 231 225 223
279 280 280 281 282 281 279 277 275 274 273 273 274 274 274 274 272 270 266 265 268 270 272 276 276 273 272 270 266 261 257 256 261 267 268 269 269 265 262 259 254 251 247 240 235 234 236 238 237 233 232 232 233 235 229 222 219 223 228 205 185 198 195 214 242 255 264 264 258 264 265 251 247 251 257 257 252 251 253 255 257 254 249 247 243 234 228 227
274 274 275 276 277 277 277 276 274 273 271 271 272 272 273 272 269 267 263 260 264 268 269 274 277 273 265 269 271 264 258 258 258 261 263 264 266 267 264 260 257 253 248 243 238 237 240 241 238 232 229 229 228 229 226 218 217 221 225 211 189 190 198 223 249 257 267 275 261 253 264 256 246 251 254 258 263 261 252 251 253 252 245 241 245 238 230 227
274 272 272 272 272 273 272 272 272 270 269 269 269 270 271 268 265 264 260 257 259 266 269 269 272 274 269 272 274 267 261 259 256 256 259 261 262 264 263 260 257 253 249 249 247 244 245 245 240 233 227 228 226 225 225 221 220 218 219 218 194 181 189 207 243 258 266 277 266 254 272 268 248 246 249 252 259 256 249 247 250 252 247 237 239 239 234 226
274 272 271 270 270 270 270 269 268 268 268 267 267 268 268 264 262 262 260 257 256 264 270 267 268 275 272 265 267 273 273 263 257 255 257 259 258 260 263 261 256 254 252 253 254 251 249 243 238 235 229 228 227 224 224 223 223 216 213 219 199 174 180 188 220 248 249 256 260 258 267 265 246 243 246 246 248 249 250 248 247 250 248 240 237 238 238 230
274 273 272 270 270 270 269 268 267 266 265 265 267 266 264 263 263 262 261 260 257 259 267 269 268 265 261 262 269 278 275 264 260 259 259 257 254 257 260 257 256 257 256 254 254 254 250 241 235 234 230 228 228 226 225 225 224 217 212 216 205 181 178 185 203 236 240 240 250 254 259 263 255 249 251 249 246 247 252 251 247 246 244 242 237 234 239 239
274 273 272 270 270 270 270 268 267 266 264 264 266 264 263 264 264 263 262 261 259 255 260 266 267 261 259 264 266 265 267 271 262 255 258 257 253 255 257 258 259 257 256 256 254 252 247 241 236 234 232 230 230 227 225 225 223 220 215 214 215 202 189 186 194 224 247 253 259 263 263 264 262 256 256 256 251 246 246 248 247 245 245 242 238 231 231 240
275 274 273 271 269 269 270 270 268 267 266 265 265 264 263 263 262 262 262 262 260 254 253 259 264 261 258 259 258 259 267 273 259 253 257 261 254 251 254 258 258 255 255 255 254 253 247 242 240 237 233 231 232 230 225 224 225 222 217 214 218 217 203 189 184 203 238 257 266 268 264 259 259 260 259 255 252 250 248 248 247 248 248 244 240 233 224 229
277 276 274 272 270 269 269 270 269 268 267 267 266 264 262 261 260 261 261 261 260 259 256 255 257 258 256 257 258 261 262 261 262 260 258 259 255 249 251 256 256 251 250 253 255 254 247 243 242 241 238 235 235 234 227 225 227 221 218 220 217 215 209 197 190 196 218 242 253 260 261 258 258 260 260 253 251 252 250 247 245 246 250 246 240 235 227 224
277 276 275 274 272 270 268 267 268 268 268 267 266 264 263 261 260 259 259 258 258 259 259 256 255 255 256 257 258 257 257 258 263 260 253 256 259 255 251 253 255 249 246 251 254 250 246 244 242 242 242 238 238 236 228 226 229 219 214 222 220 213 209 208 208 202 204 224 239 249 255 257 258 259 262 262 260 255 248 242 241 241 244 245 241 239 234 226
277 276 275 273 272 271 269 267 266 267 267 266 265 264 263 262 260 259 256 256 257 258 258 259 260 259 258 258 258 256 256 256 256 254 252 254 257 255 251 248 251 250 247 250 251 249 248 246 243 244 243 239 239 239 232 226 228 221 213 219 220 213 207 214 225 217 211 219 230 241 249 255 260 261 265 269 265 255 247 242 241 243 243 242 240 241 239 232
279 277 276 274 272 271 269 268 266 264 264 265 265 264 262 261 260 258 256 257 259 258 258 260 262 263 261 258 257 254 252 252 251 252 252 251 252 253 251 248 250 253 252 251 252 250 248 247 246 246 244 238 235 239 239 230 224 221 216 215 216 212 204 208 221 227 228 225 223 235 248 255 259 260 263 268 262 253 249 246 245 247 247 244 242 243 242 236
280 278 277 276 274 272 269 269 267 264 262 262 262 262 261 260 258 257 258 260 260 259 259 259 259 260 260 258 256 253 251 249 249 251 252 252 252 252 252 251 252 255 255 255 257 253 249 249 249 247 244 238 231 232 239 237 226 219 216 212 213 213 209 208 211 219 232 233 224 228 245 254 258 260 258 253 252 255 256 251 246 244 239 238 240 242 241 239
279 278 277 276 275 273 270 269 268 266 263 261 260 260 259 260 260 260 261 260 259 260 259 258 257 257 257 257 255 253 251 249 248 250 253 252 252 251 249 247 247 250 251 250 250 248 245 242 240 242 241 237 233 231 236 240 233 222 216 213 211 212 214 215 212 212 223 230 225 227 244 250 253 259 256 246 246 261 266 256 246 239 237 237 236 237 240 239
278 277 276 275 274 273 271 269 268 266 265 262 260 259 258 261 264 264 261 258 257 258 258 258 257 257 258 257 255 252 250 249 247 248 251 252 251 250 248 244 244 247 247 245 245 245 244 241 237 240 245 243 240 238 239 239 236 231 223 218 216 215 216 221 221 217 218 224 226 231 244 248 249 254 257 257 259 269 269 260 250 244 244 244 237 235 238 239
280 278 277 275 273 272 271 269 267 266 264 263 261 260 260 263 265 263 259 257 255 253 253 254 254 255 257 258 256 252 248 246 245 245 248 250 250 249 250 248 245 247 247 245 246 247 248 247 241 238 244 247 244 241 238 234 233 236 230 222 223 223 220 222 227 223 218 223 228 229 237 245 252 256 259 259 256 261 266 260 251 248 250 248 240 235 237 240
282 281 279 276 273 271 270 269 267 265 263 262 261 261 263 264 263 260 257 255 253 250 246 245 248 249 251 253 256 255 250 245 243 241 243 248 250 248 249 248 244 243 247 247 246 247 249 250 245 239 237 240 244 244 236 232 234 237 235 233 232 229 222 221 227 225 216 220 228 227 229 237 248 255 257 256 252 254 264 265 257 251 249 248 243 235 235 237
284 283 281 277 274 272 269 268 266 264 263 261 261 263 263 261 258 257 255 252 250 249 245 242 244 245 245 245 249 253 254 250 245 243 242 244 247 247 247 248 246 241 243 246 244 243 247 249 245 242 238 237 242 246 239 235 236 235 238 244 237 226 221 220 224 225 219 221 226 226 225 229 239 252 260 261 258 257 262 270 271 261 251 248 242 235 237 235
285 284 282 276 274 273 271 269 266 263 261 261 262 262 260 258 256 254 253 251 249 248 246 244 243 242 241 240 238 240 249 253 249 245 244 243 244 246 246 247 248 245 241 242 243 239 240 244 242 240 241 235 234 242 241 235 234 234 236 241 235 226 223 220 220 223 221 223 226 225 226 226 227 241 259 262 257 258 261 267 275 273 267 261 247 237 238 236
287 286 281 274 272 273 272 270 267 263 261 262 263 262 258 256 254 252 249 248 246 245 246 245 242 240 239 240 237 230 230 246 252 249 246 245 244 243 244 244 246 246 240 237 240 239 235 239 239 237 241 239 232 235 239 236 234 230 227 230 232 231 229 225 224 225 223 223 226 227 230 231 223 221 236 246 245 250 259 269 278 279 281 279 261 241 234 230
287 286 280 273 271 272 270 267 265 264 263 264 263 260 256 253 250 248 246 244 241 241 242 241 239 238 237 238 238 232 221 225 246 252 248 246 246 244 243 243 243 244 241 235 234 236 236 236 236 230 231 239 240 237 236 237 237 232 225 226 228 226 225 226 229 230 228 227 228 228 231 234 229 218 221 235 246 256 267 275 276 276 281 282 267 242 224 218
287 285 279 272 269 267 266 264 263 263 262 261 259 256 253 249 246 244 243 241 239 238 237 236 235 235 235 234 235 235 227 215 222 242 246 243 244 244 242 244 245 244 242 237 230 228 231 235 233 226 222 231 242 246 244 239 239 238 231 229 232 228 219 216 224 230 233 233 231 230 233 234 229 224 227 236 246 259 269 271 269 268 273 277 265 246 226 214
286 283 278 270 265 264 264 261 261 260 258 257 255 251 247 244 242 241 239 239 238 236 234 233 233 232 231 232 231 230 228 220 211 220 237 240 239 240 241 245 250 249 245 242 237 229 226 232 236 230 226 227 232 247 256 249 241 239 235 228 230 230 222 218 223 227 231 234 233 231 233 233 228 222 224 226 235 251 259 262 265 266 268 270 266 261 249 228
284 281 275 265 260 262 262 260 258 256 254 254 251 245 241 239 237 236 236 235 235 234 232 231 231 230 228 228 227 224 223 222 216 209 216 231 236 237 237 237 244 252 250 243 241 235 224 224 233 234 230 227 223 229 252 256 247 238 234 225 218 225 228 227 227 226 228 233 233 231 233 235 229 217 207 214 228 242 251 255 261 266 267 266 264 264 258 241
281 279 272 262 256 257 258 257 255 252 250 249 246 241 238 235 234 233 232 232 232 231 230 229 228 228 227 224 223 221 217 219 220 211 203 209 221 230 236 234 231 241 252 248 239 238 232 221 223 231 229 221 214 211 222 240 244 240 236 229 218 218 224 225 222 222 229 235 235 234 237 242 237 219 201 210 229 236 241 248 254 259 263 264 263 261 250 235
278 275 269 262 257 254 254 253 252 249 246 245 244 241 237 233 231 231 231 230 230 230 230 228 225 225 225 221 218 218 215 216 218 213 203 198 203 212 222 233 233 229 239 248 239 234 239 232 221 225 229 223 216 214 216 223 235 243 244 238 228 219 217 219 218 219 226 234 237 236 237 242 245 230 208 208 227 238 240 243 248 255 261 261 256 246 234 225
276 272 267 261 257 254 252 250 247 245 244 242 241 239 235 231 229 228 228 228 227 229 230 228 225 224 223 220 217 213 212 215 216 213 205 197 196 201 202 212 228 228 224 236 239 227 232 238 229 224 230 231 226 223 221 221 229 242 249 246 237 227 220 218 217 221 228 228 229 235 236 236 242 244 229 215 218 229 236 239 244 251 258 258 244 226 219 221
278 275 270 263 257 253 250 247 244 242 241 241 240 237 234 231 228 226 227 228 227 228 229 225 224 224 220 217 216 213 210 211 213 212 208 199 194 196 196 197 208 217 215 219 230 227 223 232 235 228 225 230 231 225 216 214 224 236 244 247 244 239 234 222 220 226 229 223 223 231 233 231 231 233 236 226 219 222 230 235 239 246 254 256 245 232 226 225
285 281 275 267 259 252 248 246 245 242 242 244 245 243 240 236 233 229 229 231 230 230 229 225 223 224 220 215 215 215 211 208 208 208 208 204 196 192 195 197 196 199 205 207 215 224 221 224 234 235 227 224 227 226 214 206 214 228 233 241 245 246 244 234 229 232 226 222 230 233 226 223 221 213 212 219 222 224 232 240 244 249 254 252 242 236 233 230
290 285 279 273 265 256 249 245 244 243 242 243 246 248 245 241 238 233 232 235 235 232 230 228 226 226 222 215 211 212 211 207 207 207 207 207 202 193 191 195 192 191 196 201 210 217 216 217 225 234 235 226 220 222 217 207 206 220 232 240 246 247 247 242 236 234 227 225 231 230 221 218 220 216 209 206 213 222 228 235 239 241 246 243 233 230 233 231
289 288 284 278 269 261 252 245 242 241 241 240 241 244 244 242 239 236 234 237 237 232 228 229 229 227 224 217 211 210 210 208 206 206 206 206 202 194 189 189 191 193 192 196 211 218 217 216 218 224 233 232 223 219 217 212 206 207 221 235 240 242 248 250 242 233 230 228 229 229 225 221 219 221 217 207 205 214 220 226 230 230 232 231 227 227 230 231
285 283 282 277 267 258 252 246 241 240 239 238 239 241 241 240 239 237 234 234 234 229 224 225 228 227 224 218 212 209 210 209 207 205 205 205 200 195 192 187 188 195 192 191 205 219 223 221 217 217 221 224 225 222 219 216 209 203 206 216 223 230 239 248 251 240 228 225 227 231 233 229 225 226 226 216 206 206 213 222 229 231 227 221 221 226 228 229
284 277 273 272 265 253 247 243 240 240 237 234 237 240 239 236 236 237 234 229 231 230 224 221 224 226 224 220 213 210 208 208 207 204 203 204 201 197 195 190 189 193 192 188 195 211 223 222 215 215 215 209 211 220 223 220 215 212 210 206 205 213 223 234 246 247 236 226 225 232 238 238 234 231 231 227 217 209 208 215 226 233 232 224 222 224 225 227